Moriarty, NM

3:34 AM MST on January 19, 2018 (GMT -0700)
Moriarty

Weather History for K0E0 - September, 2012

Change the Weather History Date:

Wednesday, September 19, 2012

  Actual Average (KABQ) Record (KABQ)
Temperature  
Mean Temperature 60 °F -  
Max Temperature 83 °F 81 °F 93 °F (1956)
Min Temperature 37 °F 54 °F 34 °F (1912)
Degree Days  
Heating Degree Days 5    
Growing Degree Days 10 (Base 50)    
Moisture  
Dew Point 29 °F    
Average Humidity 40    
Maximum Humidity 87    
Minimum Humidity 9    
Precipitation  
Precipitation 0.00 in - - ()
Sea Level Pressure  
Sea Level Pressure 30.27 in    
Wind  
Wind Speed 3 mph (NW)    
Max Wind Speed 13 mph    
Max Gust Speed 23 mph    
Visibility 10 miles    
Events      
Averages and records for this station are not official NWS values.
T = Trace of Precipitation, MM = Missing Value Source: NWS Daily Summary

Daily Weather History Graph

Daily Weather History Graph

Search for Another Location

Airport or City:

Trip Planner

Search our weather history database for the weather conditions in past years. The results will help you decide how hot, cold, wet, or windy it might be!

Date:

Astronomy

Sep. 19, 2012 Rise Set
Actual Time 6:50 AM MDT 7:04 PM MDT
Civil Twilight 6:24 AM MDT 7:29 PM MDT
Nautical Twilight 5:55 AM MDT 7:59 PM MDT
Astronomical Twilight 5:25 AM MDT 8:29 PM MDT
Moon 10:51 AM MDT 9:28 PM MDT
Length of Visible Light 13h 04m
Length of Day
12h 14m
Waxing Crescent, 17% of the Moon is Illuminated
Sep 19
Waxing Crescent
Sep 22
First Quarter
Sep 29
Full
Oct 8
Last Quarter
Oct 15
New

Hourly Weather History & Observations

Time (MDT) Temp. Windchill Dew Point Humidity Pressure Visibility Wind Dir Wind Speed Gust Speed Precip Events Conditions
12:15 AM 46.9 °F - 34.2 °F 61% 30.29 in 10.0 mi Calm Calm - N/A   Clear
12:35 AM 44.6 °F - 34.7 °F 68% 30.29 in 10.0 mi Calm Calm - N/A   Clear
12:55 AM 45.7 °F 44.4 °F 34.7 °F 65% 30.29 in 10.0 mi NE 3.5 mph - N/A   Clear
1:15 AM 44.6 °F 42.2 °F 35.6 °F 71% 30.29 in 10.0 mi NNE 4.6 mph - N/A   Clear
1:35 AM 46.2 °F 43.3 °F 35.4 °F 66% 30.29 in 10.0 mi East 5.8 mph - N/A   Clear
1:55 AM 44.6 °F - 34.7 °F 68% 30.29 in 10.0 mi Calm Calm - N/A   Clear
2:15 AM 42.4 °F - 35.1 °F 75% 30.29 in 10.0 mi Calm Calm - N/A   Clear
2:35 AM 42.6 °F - 34.9 °F 74% 30.28 in 10.0 mi Calm Calm - N/A   Clear
2:55 AM 42.3 °F - 35.2 °F 76% 30.28 in 10.0 mi Calm Calm - N/A   Clear
3:15 AM 43.0 °F - 35.6 °F 75% 30.28 in 10.0 mi Calm Calm - N/A   Clear
3:55 AM 39.9 °F - 34.5 °F 81% 30.28 in 10.0 mi Calm Calm - N/A   Clear
4:15 AM 40.1 °F - 34.5 °F 80% 30.28 in 10.0 mi Calm Calm - N/A   Clear
4:35 AM 39.2 °F - 34.5 °F 83% 30.28 in 10.0 mi Calm Calm - N/A   Clear
4:55 AM 41.0 °F - 34.7 °F 78% 30.29 in 10.0 mi Calm Calm - N/A   Clear
5:15 AM 39.9 °F - 34.7 °F 82% 30.29 in 10.0 mi Calm Calm - N/A   Clear
5:35 AM 41.7 °F - 34.7 °F 76% 30.29 in 10.0 mi Calm Calm - N/A   Clear
5:55 AM 38.3 °F - 33.4 °F 83% 30.29 in 10.0 mi Calm Calm - N/A   Clear
6:15 AM 38.3 °F 33.9 °F 34.2 °F 85% 30.29 in 10.0 mi NW 5.8 mph - N/A   Clear
6:35 AM 37.2 °F 33.6 °F 33.8 °F 87% 30.29 in 10.0 mi NNW 4.6 mph - N/A   Clear
6:55 AM 37.6 °F 34.0 °F 33.4 °F 85% 30.31 in 10.0 mi North 4.6 mph - N/A   Clear
7:15 AM 37.9 °F 33.5 °F 34.3 °F 87% 30.31 in 10.0 mi NNE 5.8 mph - N/A   Clear
7:35 AM 40.5 °F 38.4 °F 35.8 °F 83% 30.31 in 10.0 mi NE 3.5 mph - N/A   Clear
7:55 AM 44.1 °F 42.5 °F 37.2 °F 77% 30.31 in 10.0 mi NNE 3.5 mph - N/A   Clear
8:15 AM 48.4 °F - 37.6 °F 66% 30.32 in 10.0 mi North 3.5 mph - N/A   Clear
8:55 AM 56.7 °F - 37.8 °F 49% 30.32 in 10.0 mi Calm Calm - N/A   Clear
9:35 AM 64.2 °F - 34.5 °F 33% 30.33 in 10.0 mi Calm Calm - N/A   Clear
9:55 AM 66.4 °F - 32.9 °F 29% 30.33 in 10.0 mi Calm Calm - N/A   Clear
10:15 AM 68.7 °F - 32.7 °F 26% 30.33 in 10.0 mi Calm Calm - N/A   Clear
10:35 AM 70.9 °F - 31.5 °F 23% 30.32 in 10.0 mi Calm Calm - N/A   Clear
10:55 AM 72.7 °F - 31.3 °F 22% 30.32 in 10.0 mi Calm Calm - N/A   Clear
11:15 AM 75.0 °F - 31.6 °F 20% 30.32 in 10.0 mi WNW 4.6 mph - N/A   Clear
11:35 AM 77.0 °F - 29.3 °F 17% 30.31 in 10.0 mi NW 3.5 mph - N/A   Clear
11:55 AM 76.8 °F - 27.7 °F 16% 30.31 in 10.0 mi North 3.5 mph - N/A   Clear
12:15 PM 79.0 °F - 26.6 °F 15% 30.30 in 10.0 mi NNW 4.6 mph - N/A   Clear
12:35 PM 81.0 °F - 20.8 °F 11% 30.30 in 10.0 mi WNW 12.7 mph 23.0 mph N/A   Clear
12:55 PM 81.5 °F - 19.8 °F 10% 30.29 in 10.0 mi West 9.2 mph 18.4 mph N/A   Clear
1:15 PM 81.3 °F - 22.5 °F 11% 30.29 in 10.0 mi NNW 12.7 mph 18.4 mph N/A   Clear
1:35 PM 82.0 °F - 23.9 °F 12% 30.28 in 10.0 mi WNW 4.6 mph - N/A   Clear
1:55 PM 82.2 °F - 24.3 °F 12% 30.27 in 10.0 mi NW 8.1 mph 16.1 mph N/A   Clear
2:15 PM 82.8 °F - 22.6 °F 11% 30.26 in 10.0 mi WNW 10.4 mph 18.4 mph N/A   Clear
2:35 PM 83.5 °F - 24.4 °F 12% 30.25 in 10.0 mi West 10.4 mph 18.4 mph N/A   Clear
2:55 PM 83.5 °F - 20.3 °F 10% 30.25 in 10.0 mi NW 11.5 mph 20.7 mph N/A   Clear
3:15 PM 82.8 °F - 19.2 °F 9% 30.24 in 10.0 mi NNW 8.1 mph - N/A   Clear
3:35 PM 83.1 °F - 19.9 °F 10% 30.23 in 10.0 mi NNW 8.1 mph 12.7 mph N/A   Clear
3:55 PM 82.9 °F - 21.9 °F 11% 30.23 in 10.0 mi West 11.5 mph - N/A   Clear
4:15 PM 83.5 °F - 21.2 °F 10% 30.23 in 10.0 mi NW 10.4 mph 18.4 mph N/A   Clear
4:35 PM 82.4 °F - 20.8 °F 10% 30.23 in 10.0 mi NW 6.9 mph 16.1 mph N/A   Clear
4:55 PM 82.8 °F - 22.1 °F 11% 30.23 in 10.0 mi West 10.4 mph - N/A   Clear
5:15 PM 82.0 °F - 21.7 °F 11% 30.22 in 10.0 mi WNW 6.9 mph - N/A   Clear
5:35 PM 81.1 °F - 22.1 °F 11% 30.23 in 10.0 mi West 10.4 mph - N/A   Clear
5:55 PM 80.4 °F - 23.0 °F 12% 30.23 in 10.0 mi West 6.9 mph - N/A   Clear
6:15 PM 78.6 °F - 23.0 °F 13% 30.23 in 10.0 mi West 9.2 mph - N/A   Clear
6:35 PM 77.4 °F - 23.7 °F 14% 30.23 in 10.0 mi West 9.2 mph - N/A   Clear
7:15 PM 70.5 °F - 23.9 °F 17% 30.22 in 10.0 mi West 10.4 mph - N/A   Clear
7:35 PM 69.6 °F - 23.7 °F 18% 30.23 in 10.0 mi West 9.2 mph - N/A   Clear
7:55 PM 67.5 °F - 24.4 °F 20% 30.23 in 10.0 mi West 9.2 mph - N/A   Clear
8:15 PM 64.6 °F - 26.8 °F 24% 30.24 in 10.0 mi West 8.1 mph - N/A   Clear
8:35 PM 63.5 °F - 26.4 °F 25% 30.25 in 10.0 mi West 8.1 mph - N/A   Clear
8:55 PM 59.2 °F - 27.5 °F 30% 30.25 in 10.0 mi WNW 3.5 mph - N/A   Clear
9:15 PM 58.6 °F - 27.5 °F 30% 30.26 in 10.0 mi Calm Calm - N/A   Clear
9:35 PM 60.1 °F - 27.3 °F 29% 30.26 in 10.0 mi WNW 10.4 mph - N/A   Clear
9:55 PM 63.7 °F - 25.2 °F 23% 30.26 in 10.0 mi West 11.5 mph - N/A   Clear
10:15 PM 62.8 °F - 24.3 °F 23% 30.26 in 10.0 mi West 8.1 mph - N/A   Clear
10:35 PM 61.2 °F - 24.1 °F 24% 30.26 in 10.0 mi West 9.2 mph - N/A   Clear
10:55 PM 57.0 °F - 27.0 °F 32% 30.26 in 10.0 mi West 3.5 mph - N/A   Clear
11:15 PM 55.9 °F - 26.6 °F 32% 30.27 in 10.0 mi Calm Calm - N/A   Clear
11:35 PM 50.9 °F - 29.8 °F 44% 30.26 in 10.0 mi Calm Calm - N/A   Clear
11:55 PM 53.6 °F - 27.3 °F 36% 30.26 in 10.0 mi North 3.5 mph - N/A   Clear